Temp
-19 -19 -20 -20 -19 -19 -19 -19 -19 -19 -19 -19 -19 -19 -19 -19 -19 -19 -18 -18 -18 -18 -18 -19 -19 -19 -19 -19 -19 -19 -19 -19 -19 -20 -20 -20 -21 -23 -24 -24 -24 -25 -26 -27
-21 -21 -21 -21 -21 -20 -20 -20 -20 -19 -19 -19 -19 -19 -19 -19 -19 -19 -19 -18 -18 -18 -19 -19 -19 -19 -19 -19 -19 -19 -19 -19 -20 -20 -20 -20 -21 -23 -24 -24 -25 -25 -26 -26
-21 -21 -21 -22 -22 -21 -21 -20 -20 -20 -20 -20 -20 -19 -19 -19 -19 -19 -19 -19 -18 -19 -19 -19 -19 -19 -19 -19 -19 -19 -19 -19 -20 -20 -20 -20 -21 -22 -24 -24 -25 -25 -26 -26
-21 -21 -21 -22 -22 -21 -21 -20 -20 -20 -20 -20 -20 -20 -19 -19 -19 -19 -19 -19 -19 -19 -19 -19 -19 -19 -19 -19 -19 -19 -19 -19 -20 -20 -21 -20 -21 -22 -23 -25 -25 -25 -26 -26
-20 -21 -21 -21 -21 -21 -20 -20 -20 -20 -20 -20 -20 -20 -20 -19 -19 -19 -19 -19 -19 -19 -19 -19 -19 -19 -19 -19 -20 -19 -19 -19 -20 -20 -21 -21 -21 -21 -22 -24 -25 -25 -26 -26
-20 -20 -20 -20 -20 -20 -20 -20 -20 -20 -20 -20 -19 -19 -19 -19 -19 -19 -19 -19 -19 -19 -19 -19 -19 -19 -20 -20 -20 -20 -20 -20 -20 -20 -21 -21 -21 -21 -22 -23 -25 -26 -26 -26
-19 -19 -19 -20 -20 -20 -20 -20 -20 -20 -19 -19 -19 -19 -19 -19 -19 -19 -19 -19 -19 -19 -19 -19 -20 -20 -20 -20 -20 -20 -20 -20 -20 -20 -21 -21 -21 -21 -22 -22 -24 -25 -26 -26
-18 -19 -19 -19 -19 -19 -19 -19 -19 -19 -19 -19 -19 -19 -19 -19 -19 -19 -20 -20 -20 -20 -20 -20 -20 -20 -20 -20 -20 -20 -20 -20 -20 -21 -21 -21 -21 -21 -22 -22 -23 -25 -26 -26
-18 -18 -19 -19 -19 -19 -19 -19 -19 -19 -19 -19 -19 -19 -19 -20 -20 -20 -20 -20 -20 -20 -20 -20 -20 -20 -21 -21 -20 -21 -20 -20 -21 -21 -21 -22 -21 -21 -22 -22 -22 -24 -25 -25
-18 -18 -18 -18 -19 -19 -19 -19 -19 -19 -19 -19 -19 -19 -20 -20 -20 -20 -20 -20 -20 -20 -20 -20 -20 -20 -21 -21 -21 -21 -21 -20 -21 -21 -21 -21 -21 -21 -22 -22 -22 -23 -24 -25
-18 -18 -18 -18 -18 -18 -19 -19 -19 -19 -19 -19 -20 -20 -20 -20 -20 -20 -21 -21 -21 -21 -21 -21 -21 -21 -21 -21 -21 -21 -21 -21 -21 -21 -21 -21 -21 -21 -21 -21 -22 -22 -23 -24
-18 -18 -18 -18 -18 -19 -19 -19 -19 -19 -19 -19 -20 -20 -20 -20 -21 -21 -21 -21 -21 -21 -21 -21 -21 -21 -22 -22 -21 -21 -21 -21 -21 -21 -21 -21 -21 -22 -22 -22 -22 -22 -22 -22
-18 -18 -18 -18 -19 -19 -19 -19 -19 -20 -20 -20 -20 -21 -21 -21 -21 -21 -21 -21 -21 -21 -21 -21 -21 -21 -21 -22 -22 -21 -21 -21 -21 -21 -21 -21 -21 -21 -22 -22 -22 -22 -22 -22
-17 -18 -18 -18 -18 -19 -19 -19 -19 -20 -20 -20 -20 -21 -21 -21 -22 -22 -22 -22 -22 -22 -22 -22 -22 -22 -21 -22 -22 -22 -22 -21 -21 -21 -21 -21 -21 -22 -22 -22 -22 -22 -22 -22
-17 -17 -17 -18 -18 -19 -19 -19 -20 -20 -20 -21 -21 -21 -22 -22 -23 -23 -23 -24 -24 -24 -23 -23 -23 -23 -23 -23 -23 -22 -22 -22 -22 -22 -22 -21 -21 -22 -22 -22 -23 -23 -22 -22
-17 -17 -18 -18 -18 -19 -19 -20 -20 -21 -21 -22 -22 -23 -24 -24 -24 -24 -24 -24 -24 -24 -24 -24 -24 -23 -23 -23 -23 -23 -23 -22 -22 -22 -22 -22 -22 -22 -22 -22 -23 -23 -23 -22
-17 -17 -18 -18 -19 -19 -20 -20 -21 -21 -23 -23 -24 -24 -24 -24 -24 -25 -25 -25 -25 -25 -25 -25 -24 -24 -23 -23 -23 -23 -23 -23 -23 -22 -22 -22 -22 -22 -22 -22 -22 -22 -22 -22
-17 -18 -18 -19 -19 -20 -20 -21 -22 -23 -24 -24 -24 -24 -24 -25 -25 -25 -25 -25 -25 -26 -26 -25 -25 -25 -25 -24 -24 -23 -23 -24 -23 -23 -22 -22 -22 -22 -22 -22 -22 -22 -22 -22
-17 -18 -19 -19 -20 -21 -21 -22 -23 -24 -24 -24 -25 -25 -25 -25 -25 -26 -26 -26 -26 -26 -26 -26 -26 -26 -25 -25 -25 -24 -24 -23 -23 -23 -23 -22 -22 -21 -21 -21 -21 -21 -21 -21
-18 -18 -19 -20 -21 -22 -22 -24 -24 -24 -24 -25 -25 -25 -25 -25 -25 -25 -25 -25 -26 -26 -26 -26 -26 -26 -26 -25 -25 -25 -24 -24 -23 -23 -23 -23 -23 -23 -22 -21 -21 -21 -21 -21
-18 -19 -20 -21 -22 -23 -23 -24 -24 -25 -25 -25 -25 -25 -25 -25 -25 -25 -25 -25 -25 -25 -26 -26 -26 -26 -26 -26 -25 -25 -25 -24 -24 -24 -23 -23 -23 -23 -23 -23 -22 -22 -21 -21
-18 -19 -20 -22 -23 -24 -24 -24 -25 -25 -25 -25 -25 -25 -25 -25 -25 -25 -25 -25 -25 -25 -25 -25 -25 -25 -26 -26 -25 -25 -25 -25 -24 -24 -24 -23 -23 -23 -23 -23 -22 -22 -22 -21
-18 -19 -21 -23 -24 -24 -25 -25 -25 -25 -25 -25 -25 -25 -25 -25 -25 -25 -25 -25 -25 -25 -25 -25 -25 -25 -25 -25 -25 -25 -25 -25 -25 -24 -24 -24 -24 -23 -23 -23 -22 -22 -22 -22
-18 -19 -21 -24 -24 -24 -24 -24 -24 -24 -25 -25 -25 -25 -25 -25 -25 -25 -25 -25 -25 -25 -25 -25 -25 -25 -25 -25 -25 -25 -25 -25 -25 -25 -24 -24 -24 -24 -24 -24 -23 -22 -22 -22
-18 -19 -22 -24 -24 -24 -24 -24 -24 -24 -24 -24 -24 -24 -25 -24 -24 -24 -24 -24 -24 -24 -24 -25 -25 -25 -25 -25 -25 -24 -24 -24 -24 -24 -24 -24 -24 -24 -24 -24 -24 -24 -23 -23
-18 -19 -22 -23 -23 -23 -24 -24 -24 -24 -24 -24 -24 -24 -24 -24 -24 -24 -24 -24 -24 -24 -24 -24 -24 -24 -24 -24 -24 -24 -24 -24 -24 -24 -24 -24 -24 -24 -24 -24 -24 -24 -24 -24
-18 -19 -22 -23 -23 -23 -23 -23 -23 -24 -24 -24 -24 -24 -24 -24 -24 -24 -24 -24 -24 -24 -24 -24 -24 -24 -24 -24 -24 -24 -24 -24 -24 -24 -24 -24 -24 -24 -24 -24 -24 -24 -24 -24
Height
5703 5701 5701 5702 5705 5706 5708 5710 5712 5712 5713 5714 5714 5713 5712 5710 5708 5705 5701 5697 5693 5688 5683 5676 5668 5660 5652 5643 5632 5621 5609 5596 5582 5567 5551 5536 5518 5502 5488 5473 5458 5442 5427 5411
5692 5692 5693 5693 5697 5700 5703 5705 5707 5709 5711 5711 5711 5710 5710 5708 5705 5702 5698 5694 5690 5684 5679 5672 5665 5657 5648 5638 5628 5616 5604 5590 5577 5562 5546 5530 5512 5496 5482 5467 5453 5438 5423 5409
5693 5692 5690 5691 5693 5697 5701 5703 5705 5708 5710 5709 5709 5709 5707 5705 5702 5698 5695 5691 5686 5681 5675 5668 5661 5653 5644 5634 5624 5612 5600 5586 5573 5558 5543 5527 5509 5492 5476 5463 5449 5434 5421 5407
5695 5694 5694 5693 5694 5697 5701 5703 5706 5708 5709 5709 5709 5707 5704 5702 5699 5695 5691 5687 5682 5677 5671 5664 5657 5649 5640 5631 5620 5609 5597 5584 5570 5557 5542 5525 5508 5490 5472 5459 5446 5433 5420 5407
5698 5696 5696 5695 5698 5701 5703 5706 5707 5708 5709 5708 5707 5704 5703 5699 5696 5692 5688 5684 5679 5674 5668 5661 5653 5645 5637 5628 5618 5607 5594 5582 5570 5556 5541 5525 5509 5492 5473 5457 5445 5433 5421 5409
5702 5702 5701 5701 5702 5704 5706 5708 5709 5709 5709 5707 5706 5703 5700 5697 5693 5689 5685 5680 5675 5669 5663 5657 5650 5642 5634 5625 5616 5605 5593 5581 5569 5556 5541 5526 5511 5494 5476 5459 5446 5435 5424 5413
5710 5709 5708 5708 5708 5710 5711 5715 5711 5710 5708 5706 5704 5701 5698 5694 5690 5686 5681 5676 5671 5665 5660 5653 5646 5639 5631 5622 5613 5603 5591 5580 5568 5556 5542 5529 5514 5498 5481 5463 5450 5439 5428 5418
5718 5716 5715 5714 5715 5715 5715 5713 5712 5710 5708 5705 5702 5698 5694 5690 5686 5681 5677 5672 5667 5661 5656 5649 5643 5635 5628 5620 5611 5601 5591 5580 5569 5557 5545 5532 5518 5503 5488 5471 5455 5445 5435 5425
5725 5722 5720 5719 5718 5717 5716 5714 5711 5709 5706 5702 5699 5694 5690 5686 5681 5677 5673 5668 5663 5657 5652 5645 5639 5632 5625 5618 5609 5600 5591 5580 5569 5559 5548 5536 5523 5511 5496 5480 5464 5452 5443 5435
5727 5725 5723 5721 5720 5718 5716 5713 5710 5707 5703 5699 5694 5690 5686 5681 5678 5673 5669 5664 5659 5653 5648 5642 5636 5629 5622 5615 5608 5599 5591 5582 5571 5561 5551 5540 5529 5518 5505 5491 5476 5462 5452 5445
5728 5725 5723 5722 5720 5717 5715 5711 5707 5703 5699 5694 5690 5686 5682 5678 5674 5669 5665 5660 5655 5650 5644 5638 5632 5626 5620 5614 5606 5598 5591 5583 5573 5563 5554 5544 5534 5524 5514 5502 5489 5476 5465 5455
5728 5726 5724 5721 5719 5715 5712 5708 5704 5699 5696 5691 5687 5683 5679 5674 5669 5665 5660 5655 5650 5645 5639 5634 5628 5623 5617 5611 5605 5598 5591 5584 5575 5566 5557 5548 5539 5530 5522 5512 5502 5491 5480 5470
5727 5724 5722 5720 5717 5713 5709 5705 5702 5698 5693 5689 5684 5680 5675 5670 5665 5660 5655 5650 5645 5640 5635 5630 5625 5619 5613 5608 5603 5598 5591 5585 5577 5569 5561 5553 5545 5536 5529 5521 5512 5504 5495 5486
5725 5723 5721 5718 5715 5711 5707 5703 5699 5695 5690 5685 5680 5675 5670 5665 5660 5656 5651 5646 5641 5635 5630 5625 5620 5616 5610 5605 5601 5597 5591 5586 5580 5572 5564 5557 5550 5543 5536 5528 5521 5514 5507 5501
5725 5722 5719 5716 5712 5709 5705 5700 5696 5691 5687 5682 5677 5672 5667 5662 5657 5653 5648 5643 5638 5633 5628 5623 5617 5612 5608 5604 5600 5596 5591 5586 5582 5576 5569 5562 5555 5549 5543 5537 5530 5525 5519 5514
5724 5721 5718 5715 5711 5707 5702 5698 5693 5689 5684 5678 5674 5669 5666 5662 5657 5652 5647 5642 5637 5632 5626 5620 5615 5611 5606 5603 5599 5595 5590 5587 5583 5578 5574 5567 5562 5556 5551 5546 5540 5536 5530 5526
5724 5720 5717 5713 5709 5705 5700 5695 5691 5686 5681 5677 5674 5671 5667 5663 5657 5652 5646 5640 5635 5629 5623 5617 5613 5608 5605 5601 5598 5594 5590 5588 5584 5581 5577 5573 5568 5563 5559 5554 5551 5546 5542 5537
5722 5719 5714 5711 5707 5702 5698 5693 5688 5684 5682 5679 5676 5673 5668 5662 5657 5651 5646 5640 5633 5627 5621 5616 5611 5607 5604 5600 5596 5594 5591 5588 5586 5582 5578 5575 5572 5569 5565 5561 5558 5554 5550 5546
5721 5717 5713 5709 5704 5699 5695 5690 5688 5686 5684 5682 5678 5673 5668 5663 5658 5653 5647 5642 5636 5630 5624 5618 5613 5607 5603 5600 5596 5593 5591 5589 5586 5584 5581 5577 5574 5572 5569 5566 5563 5560 5556 5554
5719 5715 5710 5706 5701 5697 5693 5691 5690 5689 5687 5684 5679 5676 5671 5667 5662 5656 5651 5646 5640 5634 5628 5621 5616 5610 5605 5601 5597 5594 5592 5589 5588 5585 5583 5580 5578 5575 5571 5569 5567 5565 5562 5559
5717 5713 5708 5703 5699 5695 5694 5694 5694 5692 5689 5686 5683 5680 5676 5671 5666 5661 5656 5651 5645 5639 5633 5627 5621 5615 5609 5604 5600 5596 5593 5591 5589 5587 5585 5582 5580 5577 5575 5573 5569 5567 5565 5562
5715 5711 5706 5701 5698 5697 5698 5698 5697 5695 5693 5690 5688 5684 5681 5677 5673 5668 5663 5657 5651 5645 5640 5634 5627 5621 5615 5610 5605 5601 5598 5595 5592 5589 5587 5585 5583 5580 5577 5575 5572 5569 5566 5564
5714 5709 5703 5700 5699 5700 5701 5700 5699 5698 5697 5695 5693 5690 5686 5683 5678 5674 5669 5664 5659 5652 5647 5641 5634 5629 5624 5619 5613 5609 5604 5600 5597 5594 5591 5588 5585 5582 5580 5577 5574 5572 5569 5566
5713 5707 5703 5701 5702 5703 5703 5704 5703 5703 5701 5700 5697 5695 5691 5687 5683 5679 5675 5670 5665 5660 5655 5650 5644 5638 5632 5627 5622 5617 5612 5608 5604 5600 5596 5592 5589 5585 5582 5579 5576 5573 5570 5567
5712 5707 5703 5703 5704 5706 5707 5707 5707 5707 5706 5704 5702 5699 5695 5691 5688 5684 5680 5675 5670 5666 5661 5656 5651 5646 5642 5636 5631 5625 5620 5616 5611 5607 5603 5599 5595 5590 5586 5582 5578 5575 5572 5568
5711 5706 5704 5705 5708 5709 5711 5711 5712 5711 5710 5709 5706 5703 5700 5697 5693 5689 5685 5681 5677 5672 5667 5663 5658 5654 5649 5644 5639 5634 5629 5624 5619 5614 5609 5605 5600 5595 5591 5586 5582 5577 5573 5569
5711 5707 5706 5708 5710 5712 5714 5715 5715 5715 5714 5713 5711 5708 5705 5702 5698 5695 5691 5687 5683 5679 5674 5670 5665 5660 5655 5651 5646 5641 5636 5630 5626 5621 5616 5610 5605 5600 5595 5591 5585 5580 5574 5570
Wind_Speed
41 40 36 34 27 27 26 26 26 24 22 21 19 19 16 15 15 17 18 20 23 26 29 31 34 36 39 43 47 50 52 53 56 58 58 63 62 51 48 48 50 49 47 45
15 19 21 22 21 23 23 22 23 22 19 17 16 14 13 14 16 17 19 21 24 26 29 31 33 36 39 44 48 50 53 54 56 58 58 62 65 50 48 48 48 47 45 42
5 8 9 9 14 16 16 20 22 17 14 13 12 12 13 14 16 19 20 21 24 27 28 30 33 36 40 43 47 50 53 54 56 56 57 61 65 60 46 47 47 46 44 40
5 7 6 5 7 10 12 13 13 10 9 9 10 12 14 16 18 18 19 22 24 26 27 30 34 37 40 43 46 49 52 54 54 54 56 59 63 65 52 42 44 41 42 37
10 8 6 5 5 6 6 6 6 7 6 8 10 11 14 15 16 17 19 21 22 25 28 31 34 37 40 42 45 48 50 51 52 53 54 57 60 64 59 46 38 38 40 35
15 14 13 13 12 11 9 9 6 3 5 9 11 13 15 15 16 18 20 22 26 29 32 34 36 37 39 41 43 45 48 49 50 53 51 54 58 62 62 50 40 34 37 32
19 18 17 16 15 13 10 5 1 4 7 10 13 15 17 19 20 22 24 26 29 30 32 34 35 36 38 39 41 43 46 47 49 50 49 51 55 59 61 54 43 34 34 30
17 17 17 15 12 8 4 3 5 8 11 13 15 17 19 20 21 23 25 27 29 30 31 33 34 35 37 37 39 41 44 45 46 46 47 49 50 55 59 60 43 36 31 30
13 12 11 9 7 5 4 6 9 12 15 18 20 22 22 22 23 24 25 26 28 29 30 32 33 34 35 35 36 38 41 43 43 44 45 46 47 51 55 58 58 36 30 29
7 6 6 5 5 7 10 14 17 20 22 23 23 21 21 22 23 24 26 27 29 30 31 30 31 32 34 34 34 35 37 40 41 42 41 42 44 46 50 54 57 54 34 27
5 4 6 8 10 14 17 21 22 22 22 21 21 22 23 23 24 26 28 28 28 28 28 29 30 31 32 33 33 32 34 36 39 38 37 40 39 40 46 49 53 55 53 33
10 12 13 15 17 20 22 21 19 18 18 19 21 22 23 23 24 25 26 27 28 28 29 31 30 28 27 29 30 30 30 32 36 35 36 36 38 37 39 44 48 50 51 53
14 15 16 16 17 18 16 17 18 19 20 21 23 23 24 25 26 27 28 27 28 27 28 26 28 28 27 27 26 28 26 28 32 34 33 34 34 37 35 38 42 43 46 49
9 10 12 13 15 16 17 18 19 20 21 23 23 24 25 26 26 26 25 24 21 21 22 22 22 24 24 24 24 23 22 24 27 31 32 32 31 34 37 35 36 38 38 41
8 10 11 12 14 15 16 18 20 21 23 24 25 26 26 24 21 19 19 20 20 21 22 23 23 23 24 23 20 21 19 20 22 28 29 30 29 31 33 36 38 37 34 36
10 12 13 15 16 19 20 21 21 23 24 25 23 20 17 17 19 20 21 24 23 22 22 23 23 23 22 22 19 20 15 16 18 23 24 27 28 31 31 36 40 39 37 33
13 15 18 19 21 21 22 23 23 23 22 18 15 15 19 24 27 28 26 24 23 22 21 22 23 22 19 16 16 17 15 13 15 16 18 19 25 26 26 30 29 29 34 34
17 19 20 21 22 23 22 22 22 17 14 13 17 21 26 26 25 25 25 24 25 26 26 24 21 19 18 17 15 14 15 8 11 14 15 15 16 17 20 21 20 24 26 27
18 21 23 23 22 21 20 19 13 12 15 19 26 25 24 23 22 24 25 26 27 27 26 24 26 23 18 15 16 15 13 14 8 10 14 15 16 13 13 15 14 15 15 19
19 23 24 22 20 18 16 11 11 14 19 24 22 23 24 25 26 27 28 28 28 29 32 31 27 26 27 23 17 15 16 13 15 13 7 11 14 17 18 11 9 11 12 14
22 24 24 21 15 13 12 12 14 18 21 21 25 28 31 34 34 32 31 32 33 34 33 32 34 35 28 26 28 25 20 16 17 14 15 14 12 13 13 16 18 14 8 7
23 24 23 15 9 13 14 13 16 18 22 26 28 30 31 33 35 36 39 39 36 33 33 37 40 39 39 37 28 28 30 29 23 20 19 16 16 16 16 15 14 16 18 16
23 25 23 8 15 17 15 17 20 22 26 27 28 28 28 31 32 32 35 37 41 45 44 44 41 41 43 44 43 42 34 31 32 33 31 28 23 19 17 18 18 17 17 18
24 26 17 13 20 18 19 24 25 25 26 26 26 27 29 29 30 31 32 34 37 38 41 45 48 47 44 43 44 46 46 48 47 41 36 33 33 32 31 25 20 19 20 20
24 22 13 20 22 27 27 27 24 23 24 25 28 29 31 31 32 34 35 37 38 39 41 42 42 44 47 49 49 50 50 50 50 49 47 47 46 45 41 36 32 28 24 21
21 17 17 26 32 29 26 23 22 23 26 27 30 32 33 34 35 36 39 40 40 41 41 42 42 42 44 45 45 47 48 49 48 48 48 47 47 46 44 42 40 39 35 29
19 17 21 31 30 28 25 23 23 24 26 29 30 33 33 35 38 40 43 46 47 48 47 48 47 46 44 43 42 42 42 43 45 45 45 46 46 48 46 44 44 42 38 36
Wind_Direction
273 268 266 266 259 253 248 241 243 238 240 249 262 268 275 287 300 305 312 317 319 324 329 335 337 339 343 345 347 347 346 345 346 345 345 347 348 339 338 339 340 343 344 345
288 279 262 255 251 247 240 234 229 232 240 253 260 266 279 295 299 301 309 314 319 327 330 335 339 341 344 347 349 348 349 348 348 348 349 351 353 341 340 337 339 342 344 347
13 12 359 283 239 231 230 228 230 239 249 252 256 270 283 297 301 305 306 314 323 325 330 337 341 343 346 348 349 349 350 349 350 350 351 353 357 354 339 342 343 344 346 348
13 341 319 307 218 210 223 227 235 244 237 248 270 286 292 302 301 303 312 320 324 328 335 339 340 343 345 347 349 349 351 351 351 351 353 356 358 360 350 343 348 351 353 353
50 60 69 100 146 181 194 199 203 200 229 273 293 300 297 301 309 317 322 324 326 331 334 337 339 341 344 346 348 350 353 352 352 353 355 359 0 2 0 351 351 355 356 0
71 80 88 101 112 124 139 148 171 215 285 302 301 306 314 321 323 323 324 326 328 330 333 336 338 340 344 345 347 350 354 354 354 356 356 1 2 3 6 2 357 359 2 7
86 93 100 105 112 119 123 128 265 312 320 320 319 315 313 313 315 317 321 323 325 328 331 333 336 338 343 345 346 350 355 356 357 357 358 1 5 6 9 11 9 8 9 17
85 94 98 97 101 98 75 30 347 341 337 331 327 324 320 318 316 317 319 322 324 327 329 331 333 337 341 343 345 351 354 357 358 358 1 3 7 10 13 16 17 20 19 27
80 82 79 77 73 54 20 348 332 327 324 321 320 319 318 319 321 322 322 323 324 325 327 329 331 337 340 341 345 351 354 358 360 1 3 5 10 13 17 20 25 24 26 39
54 62 56 38 9 343 331 325 323 322 320 318 319 319 320 321 321 321 321 323 323 324 328 330 334 337 339 343 345 350 354 358 0 4 5 6 11 15 19 23 27 31 34 39
339 348 341 324 318 316 317 318 317 317 318 319 319 318 318 318 319 321 323 324 324 326 325 326 329 332 333 340 346 350 354 358 2 6 8 10 11 15 19 23 29 32 38 42
307 312 313 313 316 315 316 317 321 326 326 326 325 324 323 323 322 321 320 319 317 318 325 327 327 331 335 337 345 351 354 359 3 7 10 11 16 16 17 23 26 33 38 43
302 305 309 311 311 316 321 325 325 326 327 327 326 325 323 320 316 316 317 321 324 325 325 327 330 331 334 335 338 348 355 0 5 8 12 12 18 22 19 21 25 29 40 45
307 307 309 315 322 325 327 331 333 332 330 328 325 322 319 319 323 328 330 329 328 329 329 328 326 328 331 334 338 343 355 2 8 11 16 15 20 27 27 27 29 31 37 46
322 327 333 333 334 333 335 337 334 329 324 321 319 321 329 337 344 349 351 355 352 346 340 335 336 339 344 347 344 345 355 7 11 19 23 23 27 32 33 37 39 37 41 46
345 343 339 337 336 340 338 331 326 325 323 325 341 360 4 4 6 4 358 352 348 343 343 350 353 350 346 343 344 357 355 15 19 29 34 35 36 40 42 48 45 42 43 45
333 331 331 333 336 334 330 328 327 324 341 15 19 15 15 6 358 357 358 357 355 352 351 353 350 351 344 351 351 351 3 19 28 29 41 42 36 46 57 51 36 38 43 43
326 326 329 332 332 330 330 328 329 5 28 31 22 9 6 12 15 15 16 16 15 14 13 6 354 352 358 6 3 360 354 24 26 30 34 36 35 36 49 52 53 61 51 49
322 324 327 329 332 331 329 337 25 41 43 22 12 18 24 25 25 22 22 20 18 16 14 18 22 19 15 10 17 16 8 8 22 30 24 27 30 40 32 36 53 60 36 40
320 324 328 331 335 332 346 36 53 38 22 15 33 46 41 38 35 32 32 28 27 27 29 26 24 27 30 27 22 24 29 23 20 17 16 21 15 13 23 30 29 31 33 28
323 325 328 339 339 353 49 64 45 30 28 61 58 58 56 52 47 43 40 39 39 38 34 32 34 35 33 34 36 34 29 27 31 27 19 19 5 1 13 13 13 8 30 353
322 328 335 344 8 69 77 61 39 51 72 74 73 64 55 49 45 47 47 47 45 43 43 44 42 39 40 40 39 38 39 37 29 22 23 20 15 8 2 359 359 359 356 0
328 334 340 17 88 86 71 55 80 83 84 74 63 56 49 45 48 47 45 47 46 46 45 45 45 47 48 47 47 47 43 40 39 38 33 27 20 13 8 2 356 350 345 345
336 342 2 89 88 79 81 99 94 87 77 64 57 54 53 51 49 49 49 48 46 44 42 44 45 45 46 48 48 50 49 49 48 44 38 31 27 24 22 15 2 353 348 344
344 357 58 94 92 103 103 103 92 84 69 62 59 56 53 51 49 48 47 46 44 42 42 41 41 40 40 42 45 46 47 46 44 41 39 37 37 35 31 23 15 11 2 349
359 25 80 106 113 111 107 100 91 79 72 66 65 63 59 56 54 51 49 48 46 43 40 38 37 36 37 37 36 36 36 38 39 38 37 34 31 29 27 24 21 20 16 4
16 40 102 121 117 115 108 102 94 84 79 81 74 67 62 60 60 56 53 51 49 46 43 41 38 35 33 30 29 28 28 27 28 29 29 28 27 25 23 19 17 16 10 7